CW5040 Weather Reports


Display with metric or nautical units.
time (UTC)temp
F
wind
direction
speed
MPH
gust
MPH
rain 1hr
in
rain 24hr
in
rain mn
in
humidity
%
barometer
mb
20260906205342 85 18 0.0 0.0 0.00 0.75 0.01 48 1015.5
20260906204839 85 18 0.0 0.0 0.00 0.75 0.01 47 1016.0
20260906204339 85 18 0.0 0.0 0.00 0.75 0.01 47 1016.0
20260906203829 84 18 0.0 0.0 0.00 0.75 0.01 46 1016.0
20260906203345 85 18 0.0 0.0 0.00 0.75 0.01 46 1016.1
20260906202903 85 18 0.0 0.0 0.00 0.75 0.01 45 1016.1
20260906202332 85 18 0.0 0.0 0.00 0.75 0.01 47 1016.1
20260906201901 85 18 0.0 0.0 0.00 0.75 0.01 48 1016.1
20260906201336 84 18 0.0 0.0 0.00 0.75 0.01 47 1016.1
20260906200839 84 18 0.0 0.0 0.00 0.75 0.01 46 1016.1
20260906200341 84 18 0.0 0.0 0.00 0.75 0.01 50 1016.2
20260906195836 83 18 0.0 0.0 0.00 0.75 0.01 50 1016.2
20260906195341 83 18 0.0 0.0 0.00 0.75 0.01 51 1016.2
20260906194840 83 18 0.0 0.0 0.00 0.75 0.01 52 1016.7
20260906194328 82 18 0.0 0.0 0.00 0.75 0.01 51 1016.7
20260906193850 82 18 0.0 0.0 0.00 0.75 0.01 52 1016.7
20260906193329 82 18 0.0 0.0 0.00 0.75 0.01 51 1016.8
20260906192905 82 18 0.0 0.0 0.00 0.75 0.01 51 1016.8
20260906192343 82 18 0.0 0.0 0.00 0.75 0.01 53 1016.8
20260906191821 81 18 0.0 0.0 0.00 0.75 0.01 54 1017.2
20260906191330 81 18 0.0 0.0 0.00 0.75 0.01 54 1017.2
20260906190829 81 18 0.0 0.0 0.00 0.75 0.01 54 1017.2
20260906190354 81 18 0.0 0.0 0.00 0.75 0.01 54 1017.3
20260906185824 81 18 0.0 0.0 0.00 0.75 0.01 58 1017.3
20260906185356 81 18 0.0 0.0 0.00 0.75 0.01 55 1017.3
20260906184830 80 18 0.0 0.0 0.00 0.75 0.01 57 1017.4
20260906184329 80 18 0.0 0.0 0.00 0.75 0.01 57 1017.4
20260906183834 80 18 0.0 0.0 0.00 0.75 0.01 57 1017.4
20260906183329 80 18 0.0 0.0 0.00 0.75 0.01 58 1017.8
20260906182841 79 18 0.0 0.0 0.00 0.75 0.01 58 1017.8
20260906182324 79 18 0.0 0.0 0.00 0.75 0.01 60 1017.8
20260906181822 79 18 0.0 0.0 0.00 0.75 0.01 61 1018.0
20260906181334 79 18 0.0 0.0 0.00 0.75 0.01 60 1018.0
20260906180909 78 18 0.0 0.0 0.00 0.75 0.01 59 1018.0
20260906180348 78 18 0.0 0.0 0.00 0.75 0.01 60 1018.4
20260906175840 78 18 0.0 0.0 0.00 0.75 0.01 60 1018.4
20260906175352 78 18 0.0 0.0 0.00 0.75 0.01 60 1018.4
20260906174844 77 18 0.0 0.0 0.00 0.75 0.01 62 1018.5
20260906174344 77 18 0.0 0.0 0.00 0.75 0.01 63 1018.5
20260906173822 76 18 0.0 0.0 0.00 0.75 0.01 64 1018.5
20260906173339 76 18 0.0 0.0 0.00 0.75 0.01 65 1018.7
20260906172840 76 18 0.0 0.0 0.00 0.75 0.01 64 1018.7
20260906172343 76 18 0.0 0.0 0.00 0.75 0.01 65 1018.7
20260906171850 75 18 0.0 0.0 0.00 0.75 0.01 66 1019.0
20260906171359 75 18 0.0 0.0 0.00 0.75 0.01 66 1019.0
20260906170835 75 18 0.0 0.0 0.00 0.75 0.01 67 1019.0
20260906170345 75 18 0.0 0.0 0.00 0.75 0.01 67 1019.1
20260906165839 74 18 0.0 0.0 0.00 0.75 0.01 68 1019.1
20260906165359 74 18 0.0 0.0 0.00 0.75 0.01 68 1019.1
20260906164855 73 18 0.0 0.0 0.00 0.75 0.01 68 1019.1
20260906164348 73 18 0.0 0.0 0.00 0.75 0.01 69 1019.1
20260906163837 73 18 0.0 0.0 0.00 0.75 0.01 70 1019.1
20260906163339 72 18 0.0 0.0 0.00 0.75 0.01 70 1019.3
20260906162848 72 18 0.0 0.0 0.00 0.75 0.01 71 1019.3
20260906162337 72 18 0.0 0.0 0.00 0.75 0.01 70 1019.3
20260906161856 71 18 0.0 0.0 0.00 0.75 0.01 70 1019.7
20260906161346 71 18 0.0 0.0 0.00 0.75 0.01 69 1019.7
20260906160845 71 18 0.0 0.0 0.00 0.75 0.01 72 1019.7
20260906160339 70 18 0.0 0.0 0.00 0.75 0.01 73 1019.6
20260906155859 70 18 0.0 0.0 0.00 0.75 0.01 72 1019.6
20260906155345 70 18 0.0 0.0 0.00 0.75 0.01 74 1019.6
20260906154827 69 18 0.0 0.0 0.00 0.75 0.01 74 1019.7
20260906154341 69 18 0.0 0.0 0.00 0.75 0.01 73 1019.7
20260906153842 69 18 0.0 0.0 0.00 0.75 0.01 73 1019.7
20260906153329 69 18 0.0 0.0 0.00 0.75 0.01 74 1019.6
20260906152829 68 18 0.0 0.0 0.01 0.75 0.01 75 1019.6
20260906152330 68 18 0.0 0.0 0.01 0.75 0.01 76 1019.6
20260906151833 68 18 0.0 0.0 0.01 0.75 0.01 76 1019.4
20260906151409 67 18 0.0 0.0 0.01 0.75 0.01 76 1019.4
20260906150852 67 18 0.0 0.0 0.01 0.75 0.01 77 1019.4
20260906150351 67 18 0.0 0.0 0.01 0.75 0.01 76 1019.7
20260906145855 67 18 0.0 0.0 0.01 0.75 0.01 75 1019.7
20260906145358 67 18 0.0 0.0 0.01 0.75 0.01 77 1019.7
20260906144822 67 18 0.0 0.0 0.01 0.75 0.01 77 1019.6
20260906144327 66 18 0.0 0.0 0.01 0.75 0.01 77 1019.6
20260906143823 66 18 0.0 0.0 0.01 0.75 0.01 78 1019.6
20260906143334 66 18 0.0 0.0 0.01 0.75 0.01 79 1019.6
20260906142836 65 18 0.0 0.0 0.00 0.74 0.00 81 1019.6
20260906142351 65 18 0.0 0.0 0.00 0.74 0.00 82 1019.6
20260906141845 64 18 0.0 0.0 0.00 0.74 0.00 84 1019.6
20260906141338 63 18 0.0 0.0 0.00 0.74 0.00 85 1019.6
20260906140839 63 18 0.0 0.0 0.00 0.74 0.00 87 1019.6
20260906140329 62 18 0.0 0.0 0.00 0.74 0.00 89 1019.2
20260906135901 62 18 0.0 0.0 0.00 0.74 0.00 90 1019.2
20260906135325 61 18 0.0 0.0 0.00 0.74 0.00 91 1019.2
20260906134858 61 18 0.0 0.0 0.00 0.74 0.00 92 1019.2
20260906134334 60 18 0.0 0.0 0.00 0.74 0.00 92 1019.2
20260906133847 60 18 0.0 0.0 0.00 0.74 0.00 92 1019.2
20260906133326 60 18 0.0 0.0 0.00 0.74 0.00 91 1019.1
20260906132853 59 18 0.0 0.0 0.00 0.74 0.00 91 1019.1
20260906132345 59 18 0.0 0.0 0.00 0.74 0.00 91 1019.1
20260906131849 59 18 0.0 0.0 0.00 0.74 0.00 91 1019.2
20260906131336 59 18 0.0 0.0 0.00 0.74 0.00 91 1019.2
20260906130828 59 18 0.0 0.0 0.00 0.74 0.00 91 1019.2
20260906130335 59 18 0.0 0.0 0.00 0.74 0.00 91 1019.1
20260906125826 59 18 0.0 0.0 0.00 0.74 0.00 91 1019.1
20260906125356 59 18 0.0 0.0 0.00 0.74 0.00 91 1019.1
20260906124851 59 18 0.0 0.0 0.00 0.74 0.00 91 1019.1
20260906124325 59 18 0.0 0.0 0.00 0.74 0.00 91 1019.1
20260906123829 59 18 0.0 0.0 0.00 0.74 0.00 91 1019.1
20260906123329 59 18 0.0 0.0 0.00 0.74 0.00 90 1018.9
20260906122831 59 18 0.0 0.0 0.00 0.74 0.00 90 1018.9
20260906122330 59 18 0.0 0.0 0.00 0.74 0.00 89 1018.9
20260906121912 59 18 0.0 0.0 0.00 0.74 0.00 89 1018.7
20260906121351 59 18 0.0 0.0 0.00 0.74 0.00 89 1018.7
20260906120853 59 18 0.0 0.0 0.00 0.74 0.00 89 1018.7
20260906120328 59 18 0.0 0.0 0.00 0.74 0.00 89 1018.5
20260906115845 60 18 0.0 0.0 0.00 0.74 0.00 89 1018.5
20260906115341 60 18 0.0 0.0 0.00 0.74 0.00 89 1018.5
20260906114857 60 18 0.0 0.0 0.00 0.74 0.00 89 1018.5
20260906114355 60 18 0.0 0.0 0.00 0.74 0.00 89 1018.5
20260906113839 60 18 0.0 0.0 0.00 0.74 0.00 88 1018.5
20260906113331 60 18 0.0 0.0 0.00 0.74 0.00 87 1018.5
20260906112834 61 18 0.0 0.0 0.00 0.74 0.00 88 1018.5
20260906112327 61 18 0.0 0.0 0.00 0.74 0.00 87 1018.5
20260906111901 61 18 0.0 0.0 0.00 0.74 0.00 87 1018.8
20260906111330 61 18 0.0 0.0 0.00 0.74 0.00 87 1018.8
20260906110841 61 18 0.0 0.0 0.00 0.74 0.00 88 1018.8
20260906110340 61 18 0.0 0.0 0.00 0.74 0.00 87 1018.6
20260906105838 61 18 0.0 0.0 0.00 0.74 0.00 88 1018.6
20260906105344 62 18 0.0 0.0 0.00 0.74 0.00 88 1018.6
20260906104844 62 18 0.0 0.0 0.00 0.74 0.00 88 1018.5
20260906104350 62 18 0.0 0.0 0.00 0.74 0.00 88 1018.5
20260906103843 62 18 0.0 0.0 0.00 0.74 0.00 88 1018.5
20260906103341 62 18 0.0 0.0 0.00 0.74 0.00 88 1018.5
20260906102837 62 18 0.0 0.0 0.00 0.74 0.00 88 1018.5
20260906102335 62 18 0.0 0.0 0.00 0.74 0.00 88 1018.5
20260906101843 62 18 0.0 0.0 0.00 0.74 0.00 88 1018.5
20260906101356 62 18 0.0 0.0 0.00 0.74 0.00 88 1018.5
20260906100838 62 18 0.0 0.0 0.00 0.74 0.00 87 1018.5
20260906100336 62 18 0.0 0.0 0.00 0.74 0.00 88 1018.5
20260906095833 62 18 0.0 0.0 0.00 0.74 0.00 88 1018.5
20260906095339 62 18 0.0 0.0 0.00 0.74 0.00 88 1018.5
20260906094851 62 18 0.0 0.0 0.00 0.74 0.00 88 1018.5
20260906094355 62 18 0.0 0.0 0.00 0.74 0.00 89 1018.5
20260906093850 62 18 0.0 0.0 0.00 0.74 0.00 89 1018.5
20260906093328 62 18 0.0 0.0 0.00 0.74 0.00 90 1018.5
20260906092841 62 18 0.0 0.0 0.00 0.74 0.00 90 1018.5
20260906092338 62 18 0.0 0.0 0.00 0.74 0.00 90 1018.5
20260906091827 62 18 0.0 0.0 0.00 0.74 0.00 90 1018.5
20260906091345 63 18 0.0 0.0 0.00 0.74 0.00 90 1018.5
20260906090837 63 18 0.0 0.0 0.00 0.74 0.00 91 1018.5
20260906090352 63 18 0.0 0.0 0.00 0.74 0.00 91 1018.2
20260906085850 63 18 0.0 0.0 0.00 0.74 0.00 91 1018.2
20260906085335 63 18 0.0 0.0 0.00 0.74 0.00 90 1018.2
20260906084836 63 18 0.0 0.0 0.00 0.74 0.00 90 1018.4
20260906084321 63 18 0.0 0.0 0.00 0.74 0.00 90 1018.4
20260906083823 63 18 0.0 0.0 0.00 0.74 0.00 90 1018.4
20260906083336 63 18 0.0 0.0 0.00 0.74 0.00 90 1018.5
20260906082833 63 18 0.0 0.0 0.00 0.74 0.00 90 1018.5
20260906082328 63 18 0.0 0.0 0.00 0.74 0.00 90 1018.5
20260906081841 63 18 0.0 0.0 0.00 0.74 0.00 90 1018.3
20260906081343 63 18 0.0 0.0 0.00 0.74 0.00 90 1018.3
20260906080842 63 18 0.0 0.0 0.00 0.74 0.00 90 1018.3
20260906080415 63 18 0.0 0.0 0.00 0.74 0.00 90 1018.1
20260906075833 64 18 0.0 0.0 0.00 0.74 0.00 90 1018.1
20260906075340 64 18 0.0 0.0 0.00 0.74 0.00 89 1018.1
20260906074827 64 18 0.0 0.0 0.00 0.74 0.00 89 1018.0
20260906074331 64 18 0.0 0.0 0.00 0.74 0.00 89 1018.0
20260906073909 64 18 0.0 0.0 0.00 0.74 0.00 88 1018.0
20260906073327 64 18 0.0 0.0 0.00 0.74 0.00 88 1018.0
20260906072902 64 18 0.0 0.0 0.00 0.74 0.00 88 1018.0
20260906072339 64 18 0.0 0.0 0.00 0.74 0.00 87 1018.0
20260906071853 65 18 0.0 0.0 0.00 0.74 0.00 87 1017.9
20260906071348 65 18 0.0 0.0 0.00 0.74 0.00 86 1017.9
20260906070838 65 18 0.0 0.0 0.00 0.74 0.00 85 1017.9
20260906070343 65 18 0.0 0.0 0.00 0.74 0.00 85 1017.6
20260906065838 65 18 0.0 0.0 0.00 0.74 0.00 84 1017.6
20260906065340 65 18 0.0 0.0 0.00 0.74 0.00 83 1017.6
20260906064838 65 18 0.0 0.0 0.00 0.74 0.74 82 1017.3
20260906064357 65 18 0.0 0.0 0.00 0.74 0.74 81 1017.3
20260906063849 66 18 0.0 0.0 0.00 0.74 0.74 81 1017.3
20260906063348 66 18 0.0 0.0 0.00 0.74 0.74 80 1017.5
20260906062851 66 18 0.0 0.0 0.00 0.74 0.74 80 1017.5
20260906062347 66 18 0.0 0.0 0.00 0.74 0.74 79 1017.5
20260906061919 66 18 0.0 0.0 0.00 0.74 0.74 79 1017.3
20260906061356 66 18 0.0 0.0 0.00 0.74 0.74 79 1017.3
20260906060832 66 18 0.0 0.0 0.00 0.74 0.74 79 1017.3
20260906060329 66 18 0.0 0.0 0.00 0.74 0.74 79 1017.3
20260906055824 66 18 0.0 0.0 0.00 0.74 0.74 79 1017.3
20260906055323 66 18 0.0 0.0 0.00 0.74 0.74 80 1017.3
20260906054858 66 18 0.0 0.0 0.00 0.74 0.74 80 1017.3
20260906054359 66 18 0.0 0.0 0.00 0.74 0.74 80 1017.3
20260906053833 66 18 0.0 0.0 0.00 0.74 0.74 80 1017.3
20260906053330 66 18 0.0 0.0 0.00 0.74 0.74 80 1017.3
20260906052827 66 18 0.0 0.0 0.00 0.74 0.74 80 1017.3
20260906052331 66 18 0.0 0.0 0.00 0.74 0.74 80 1017.3
20260906051902 66 18 0.0 0.0 0.00 0.74 0.74 79 1017.3
20260906051342 66 18 0.0 0.0 0.00 0.74 0.74 78 1017.3
20260906050842 66 18 0.0 0.0 0.00 0.74 0.74 78 1017.3
20260906050337 66 18 0.0 0.0 0.00 0.74 0.74 80 1017.4
20260906045829 65 18 0.0 0.0 0.00 0.74 0.74 80 1017.4
20260906045341 65 18 0.0 0.0 0.00 0.74 0.74 80 1017.4
20260906044838 65 18 0.0 0.0 0.00 0.74 0.74 81 1017.3
20260906044331 65 18 0.0 0.0 0.00 0.74 0.74 81 1017.3
20260906043834 66 18 0.0 0.0 0.00 0.74 0.74 80 1017.3
20260906043348 66 18 0.0 0.0 0.00 0.74 0.74 81 1017.4
20260906042842 66 18 0.0 0.0 0.00 0.74 0.74 81 1017.4
20260906042337 66 18 0.0 0.0 0.00 0.74 0.74 81 1017.4
20260906041833 66 18 0.0 0.0 0.00 0.74 0.74 81 1017.5
20260906041354 66 18 0.0 0.0 0.00 0.74 0.74 80 1017.5
20260906040831 66 18 0.0 0.0 0.00 0.74 0.74 79 1017.5
20260906040347 66 18 0.0 0.0 0.00 0.74 0.74 79 1017.4
20260906035825 66 18 0.0 0.0 0.00 0.74 0.74 78 1017.4
20260906035343 66 18 0.0 0.0 0.00 0.74 0.74 76 1017.4
20260906034842 66 18 0.0 0.0 0.00 0.74 0.74 76 1017.3
20260906034412 66 18 0.0 0.0 0.00 0.74 0.74 75 1017.3
20260906033849 66 18 0.0 0.0 0.00 0.74 0.74 75 1017.3
20260906033326 66 18 0.0 0.0 0.00 0.74 0.74 75 1017.1
20260906032838 67 18 0.0 0.0 0.00 0.74 0.74 74 1017.1
20260906032333 67 18 0.0 0.0 0.00 0.74 0.74 72 1017.1
20260906031833 67 18 0.0 0.0 0.00 0.74 0.74 70 1016.8
20260906031414 67 18 0.0 0.0 0.00 0.74 0.74 70 1016.8
20260906030848 67 18 0.0 0.0 0.00 0.74 0.74 69 1016.8
20260906030325 67 18 0.0 0.0 0.02 0.74 0.74 68 1016.5
20260906025837 67 18 0.0 0.0 0.05 0.74 0.74 67 1016.5
20260906025358 67 18 0.0 0.0 0.05 0.74 0.74 67 1016.5
20260906024838 68 18 0.0 0.0 0.06 0.74 0.74 67 1016.3
20260906024337 68 18 0.0 0.0 0.09 0.74 0.74 67 1016.3
20260906023842 68 18 0.0 0.0 0.13 0.74 0.74 66 1016.3
20260906023336 68 18 0.0 0.0 0.41 0.74 0.74 67 1016.2
20260906022918 68 18 0.0 0.0 0.43 0.74 0.74 68 1016.2
20260906022358 68 18 0.0 0.0 0.44 0.74 0.74 65 1016.2
20260906021836 68 18 0.0 0.0 0.44 0.74 0.74 63 1015.8
20260906021343 69 18 0.0 0.0 0.46 0.74 0.74 62 1015.8
20260906020831 70 18 0.0 0.0 0.48 0.74 0.74 61 1015.8
20260906020324 68 18 0.0 0.0 0.46 0.70 0.70 67 1016.6
20260906015831 67 18 0.0 0.0 0.45 0.69 0.69 66 1016.6
20260906015329 66 18 0.0 0.0 0.46 0.68 0.68 67 1016.6
20260906014839 67 18 0.0 0.0 0.46 0.68 0.68 66 1016.7
20260906014338 69 18 0.0 0.0 0.45 0.65 0.65 60 1016.7
20260906013837 70 18 0.0 0.0 0.38 0.57 0.60 59 1016.7
20260906013352 71 18 0.0 0.0 0.14 0.32 0.32 68 1016.2
20260906012825 73 18 0.0 0.0 0.16 0.31 0.31 65 1016.2
20260906012321 73 18 0.0 0.0 0.22 0.30 0.30 62 1016.2
20260906011824 73 18 0.0 0.0 0.30 0.30 0.30 62 1016.2
20260906011355 72 18 0.0 0.0 0.28 0.28 0.28 65 1016.2
20260906010840 72 18 0.0 0.0 0.26 0.26 0.26 63 1016.2
20260906010339 74 18 0.0 0.0 0.24 0.24 0.24 62 1016.3
20260906005844 76 18 0.0 0.0 0.24 0.24 0.24 58 1016.3
20260906005337 75 18 0.0 0.0 0.22 0.22 0.22 50 1016.3
20260906004914 74 18 0.0 0.0 0.21 0.21 0.21 55 1016.7
20260906004400 74 18 0.0 0.0 0.20 0.20 0.20 54 1016.7
20260906003821 74 18 0.0 0.0 0.19 0.19 0.19 54 1016.7
20260906003342 75 18 0.0 0.0 0.18 0.18 0.18 55 1016.1
20260906002854 75 18 0.0 0.0 0.15 0.15 0.15 55 1016.1
20260906002329 83 18 0.0 0.0 0.08 0.08 0.08 43 1016.1
20260906001839 87 18 0.0 0.0 0.00 0.00 0.00 32 1015.1
20260906001402 87 18 0.0 0.0 0.00 0.00 0.00 30 1015.1
20260906000821 87 18 0.0 0.0 0.00 0.00 0.00 30 1015.1
20260906000326 87 18 0.0 0.0 0.00 0.00 0.00 30 1015.2
20260905235856 88 18 0.0 0.0 0.00 0.00 0.00 29 1015.2
20260905235350 88 18 0.0 0.0 0.00 0.00 0.00 29 1015.2
20260905234851 88 18 0.0 0.0 0.00 0.00 0.00 29 1015.0
20260905234330 88 18 0.0 0.0 0.00 0.00 0.00 28 1015.0
20260905233835 89 18 0.0 0.0 0.00 0.00 0.00 28 1015.0
20260905233344 90 18 0.0 0.0 0.00 0.00 0.00 26 1015.1
20260905232836 91 18 0.0 0.0 0.00 0.00 0.00 25 1015.1
20260905232357 91 18 0.0 0.0 0.00 0.00 0.00 24 1015.1
20260905231840 92 18 0.0 0.0 0.00 0.00 0.00 24 1014.9
20260905231352 92 18 0.0 0.0 0.00 0.00 0.00 24 1014.9
20260905230852 91 18 0.0 0.0 0.00 0.00 0.00 25 1014.9
20260905230326 92 18 0.0 0.0 0.00 0.00 0.00 26 1014.9
20260905225840 92 18 0.0 0.0 0.00 0.00 0.00 25 1014.9
20260905225332 92 18 0.0 0.0 0.00 0.00 0.00 25 1014.9
20260905224835 92 18 0.0 0.0 0.00 0.00 0.00 25 1014.9
20260905224357 92 18 0.0 0.0 0.00 0.00 0.00 24 1014.9
20260905223838 92 18 0.0 0.0 0.00 0.00 0.00 26 1014.9
20260905223349 92 18 0.0 0.0 0.00 0.00 0.00 25 1015.0
20260905222843 91 18 0.0 0.0 0.00 0.00 0.00 26 1015.0
20260905222341 91 18 0.0 0.0 0.00 0.00 0.00 25 1015.0
20260905221900 91 18 0.0 0.0 0.00 0.00 0.00 25 1015.0
20260905221333 91 18 0.0 0.0 0.00 0.00 0.00 25 1015.0
20260905220830 92 18 0.0 0.0 0.00 0.00 0.00 24 1015.0
20260905220346 92 18 0.0 0.0 0.00 0.00 0.00 24 1015.3
20260905215843 92 18 0.0 0.0 0.00 0.00 0.00 24 1015.3
20260905215402 92 18 0.0 0.0 0.00 0.00 0.00 24 1015.3
20260905214914 92 18 0.0 0.0 0.00 0.00 0.00 25 1015.5
20260905214325 92 18 0.0 0.0 0.00 0.00 0.00 24 1015.5
20260905213858 92 18 0.0 0.0 0.00 0.00 0.00 24 1015.5
20260905213333 92 18 0.0 0.0 0.00 0.00 0.00 23 1015.5
20260905212832 92 18 0.0 0.0 0.00 0.00 0.00 24 1015.5
20260905212326 91 18 0.0 0.0 0.00 0.00 0.00 24 1015.5
20260905211829 91 18 0.0 0.0 0.00 0.00 0.00 24 1016.0
20260905211328 91 18 0.0 0.0 0.00 0.00 0.00 24 1016.0
20260905210829 90 18 0.0 0.0 0.00 0.00 0.00 24 1016.0
20260905210336 90 18 0.0 0.0 0.00 0.00 0.00 25 1016.1
20260905205836 90 18 0.0 0.0 0.00 0.00 0.00 24 1016.1